2025-007F

Last updated on Tue Jan 14 2025 00:02:05 GMT+0000 (Coordinated Universal Time)

1 62580U 25007F 25013.45946155 -.00000210 00000+0 00000+0 0 9997 2 62580 54.9751 126.8679 0011516 294.0888 162.5064 14.75387394 45
UTC large
Height (km)
Speed (km/s)
/
Latitude / Longitude
Inclination (degrees)
Orbital Period (minutes)
Azimuth
Elevation
Range (km)
Doppler Factor

Next 0 passes for location: London (51.5072 / 0.1276)

Sorry there are no passes over London.